Location: Doux
(49.5045°N, 4.4321°E)
Time: 16:17:07
(UTC+00:00)

Cosmos 1782 Rocket - Pass Details

Date: 11 August 2024
Orbit: 602 x 628 km, 82.5° (Epoch: 19 September)

Event Time Altitude Azimuth Distance (km) Brightness Sun altitude
Rises 03:40:19 0° 164° (SSE) 2,879 6.8 -7.6°
Reaches altitude 10° 03:42:39 10° 155° (SSE) 1,983 6.1 -7.3°
Maximum altitude 03:46:38 34° 91° (E) 1,027 5.4 -6.7°
Drops below altitude 10° 03:50:39 10° 26° (NNE) 2,011 7.2 -6.2°
Sets 03:53:03 0° 18° (NNE) 2,926 7.9 -5.8°
